Wind_Speed
9 9 8 8 7 7 8 8 8 8 8 9 10 11 11 11 11 12 12 13 13 13 14 14 14 15 15 15 14 14 13 13 13 13 12 11 10 10 9 8 7 7 6
10 9 8 9 9 9 10 10 10 10 11 11 11 12 13 13 13 13 13 13 14 14 14 14 15 15 15 16 15 15 14 14 14 13 13 12 11 10 9 9 7 6 4
10 10 9 10 11 11 12 12 13 13 13 13 14 14 15 15 15 15 14 15 15 15 15 15 15 15 16 16 16 16 15 15 15 14 13 12 12 11 10 8 7 5 4
11 11 11 11 12 14 14 14 15 16 16 16 16 16 16 16 16 16 16 16 16 16 15 15 15 15 15 16 16 15 15 15 14 14 13 12 12 11 10 8 7 5 3
11 12 13 13 13 14 15 16 17 17 18 19 18 18 18 18 17 17 17 17 17 17 16 16 16 15 15 15 15 15 14 13 13 12 12 12 11 11 9 8 7 5 4
15 15 15 15 16 16 17 19 19 20 20 21 21 21 20 20 19 19 18 18 18 17 17 16 16 15 15 15 14 14 13 12 12 11 11 11 10 10 9 8 7 6 5
18 18 18 19 19 19 20 21 21 21 23 23 23 23 23 23 22 21 21 20 19 18 18 17 16 16 15 15 14 13 12 11 11 11 11 10 9 9 8 7 7 6 5
22 22 22 22 22 22 23 23 24 24 24 24 25 25 25 26 26 24 23 23 21 20 19 18 17 17 16 14 13 12 12 11 11 11 10 9 9 8 7 7 7 6 6
24 25 25 24 25 25 26 26 27 27 27 26 26 27 27 26 27 27 26 25 24 23 21 20 18 17 16 15 14 13 12 11 11 11 10 9 8 8 7 7 7 7 7
26 27 27 27 27 28 28 29 29 29 29 30 29 29 29 29 28 28 28 28 27 26 24 22 21 19 18 17 15 14 13 12 12 11 10 9 9 8 8 7 7 7 8
26 27 27 28 28 29 30 31 31 32 31 31 31 31 31 31 31 29 29 29 29 28 27 25 24 22 20 19 17 16 14 13 13 12 11 10 10 9 9 8 8 8 8
25 26 27 27 28 28 29 30 32 33 33 33 33 32 32 32 33 31 30 30 30 29 28 28 27 25 22 21 19 18 16 15 14 13 12 11 11 10 10 9 9 9 9
23 23 24 25 25 26 27 28 29 31 33 33 34 34 33 33 33 33 32 31 31 30 29 30 28 28 25 23 22 20 18 17 16 14 13 12 11 11 11 10 10 10 10
21 21 21 22 23 24 25 26 26 28 30 31 32 33 33 33 33 33 33 33 31 31 30 30 29 29 28 26 24 22 20 19 18 16 15 13 12 12 12 11 11 11 10
20 20 20 20 21 21 22 23 24 25 26 28 29 31 32 32 33 32 32 32 31 30 31 31 30 30 30 28 26 25 23 22 20 19 17 16 14 14 13 13 12 12 11
19 19 19 19 19 20 20 21 21 22 23 24 26 27 29 30 30 31 32 31 31 31 31 31 31 29 29 29 28 27 25 23 22 22 20 18 17 16 15 15 14 13 13
18 19 19 19 19 19 18 18 18 19 20 20 21 24 26 27 28 29 30 30 30 31 31 31 32 30 29 28 29 28 27 25 23 23 22 21 19 18 17 16 15 15 15
18 19 19 18 18 17 17 16 16 16 16 17 18 20 22 24 25 26 27 29 29 30 30 31 32 31 29 29 30 30 29 27 25 24 24 23 21 20 19 18 17 17 16
18 18 18 18 17 17 16 15 14 13 13 13 14 16 18 20 22 23 25 26 28 28 30 31 31 31 31 30 29 31 31 30 27 26 26 25 23 22 21 20 19 18 18
18 18 18 18 17 17 16 14 13 12 11 11 11 12 15 17 19 21 23 25 27 28 29 31 31 31 31 31 30 30 31 31 30 28 28 27 26 24 23 23 22 20 20
19 19 18 18 18 17 16 15 13 12 11 10 10 10 12 14 17 18 21 24 25 26 28 29 30 31 30 30 31 30 30 30 31 30 30 29 28 27 26 26 25 23 22
19 19 19 19 19 18 17 16 14 13 12 11 10 10 11 12 14 16 18 21 23 25 27 28 29 30 31 31 30 31 32 31 31 31 31 31 31 30 29 28 27 27 25
18 19 19 19 19 19 19 18 17 15 14 13 11 10 10 11 13 14 16 18 21 24 25 27 27 28 30 32 31 31 32 32 32 31 32 31 32 32 31 31 30 29 28
18 19 20 20 20 20 19 19 18 17 16 15 13 12 11 11 12 13 14 16 18 21 23 25 27 28 29 31 32 32 32 33 33 32 33 33 33 33 32 33 32 31 30
19 20 20 20 20 21 20 19 18 18 17 16 15 14 13 12 12 12 12 14 16 18 20 23 25 27 29 30 31 32 33 33 33 33 34 34 33 34 34 34 34 33 32
18 20 21 21 21 21 21 20 19 18 18 17 16 15 14 13 12 11 11 11 12 14 17 19 22 24 27 29 30 31 33 34 35 35 35 34 33 34 35 35 35 35 35
Wind_Direction
306 302 293 291 286 284 285 284 282 278 273 271 269 265 264 263 263 265 267 267 268 267 264 262 260 260 258 260 263 263 264 265 268 272 275 278 283 290 299 307 317 328 339
300 299 292 289 285 278 275 275 277 276 272 267 266 264 263 264 265 265 267 267 268 269 266 265 264 262 261 262 263 263 264 267 269 271 271 274 279 284 289 295 302 312 325
305 302 294 286 282 280 275 272 273 272 269 267 264 262 262 262 263 263 264 265 267 267 266 265 264 263 263 264 263 263 264 268 268 269 269 271 275 279 282 285 288 293 304
306 304 298 287 282 280 274 269 270 269 264 263 263 261 259 260 261 262 263 264 266 266 264 263 263 264 263 264 264 264 265 266 267 268 268 269 271 273 274 275 273 275 277
303 297 295 289 283 281 276 272 270 267 265 262 260 260 259 258 259 261 263 263 264 264 264 264 262 261 261 262 264 266 265 264 264 265 266 266 268 269 266 265 260 257 245
295 291 287 286 281 276 274 274 269 267 266 263 261 260 258 257 257 259 261 261 261 262 262 262 262 261 261 261 263 265 263 260 258 260 262 263 265 265 262 258 251 243 232
287 286 283 282 280 274 273 273 268 268 267 262 259 258 258 257 257 257 258 259 259 259 259 260 261 260 260 261 262 262 259 255 254 256 257 259 259 258 257 250 243 232 223
286 285 282 278 275 272 271 269 268 267 266 262 257 256 256 255 254 255 257 257 257 258 258 258 260 259 258 258 258 257 255 252 252 252 254 254 254 251 250 244 234 226 213
288 285 282 279 276 273 271 269 267 266 264 261 259 257 255 255 255 255 255 256 256 256 256 256 257 257 256 255 253 253 252 250 249 249 251 251 248 243 244 236 226 220 211
288 286 284 280 276 272 270 268 266 265 264 261 258 257 256 254 254 254 254 254 254 252 252 255 253 253 252 251 250 250 248 248 247 248 248 248 245 241 238 231 222 216 207
291 289 286 282 277 273 270 268 265 263 261 260 257 256 256 255 253 253 253 252 253 251 250 251 250 251 249 248 247 247 246 245 245 246 247 247 243 240 235 229 220 214 207
296 293 290 286 281 276 272 268 264 261 259 258 257 255 254 254 253 252 252 251 250 249 249 249 247 247 247 245 243 244 244 244 243 243 244 244 241 239 232 226 219 215 210
302 299 297 292 287 282 277 272 267 262 259 258 257 256 255 254 252 252 251 250 251 250 248 247 246 244 244 244 241 241 240 242 242 240 240 241 239 235 229 222 219 215 212
309 306 304 301 296 291 285 278 272 267 262 260 258 257 255 253 251 251 249 248 251 251 249 246 246 244 242 242 240 238 237 238 238 238 238 238 234 230 226 222 218 217 215
318 315 312 308 303 298 292 285 279 273 268 263 259 257 255 254 252 251 249 248 249 250 248 246 244 241 240 240 238 237 238 236 236 236 236 235 232 227 225 222 220 219 218
326 324 320 315 311 306 300 293 285 277 272 267 261 257 255 253 252 250 249 249 249 248 247 245 243 242 239 237 236 236 236 236 236 235 234 233 231 228 225 223 223 222 221
335 333 329 325 321 316 310 302 294 285 277 270 263 257 254 252 251 249 247 246 246 245 245 244 241 241 240 238 236 235 235 234 236 235 233 232 230 228 225 223 224 223 220
342 340 336 332 329 325 320 314 306 296 286 277 268 261 256 253 251 249 246 245 245 245 243 242 241 241 241 239 237 236 235 234 235 235 234 232 229 228 226 225 224 223 221
349 346 343 340 338 335 331 324 318 310 298 287 277 267 260 255 252 248 246 245 245 244 241 241 241 241 240 239 238 237 235 234 233 232 233 232 229 227 226 226 225 225 224
355 353 352 351 348 345 342 338 332 326 317 301 288 276 265 261 255 250 246 245 245 244 242 241 240 239 238 237 236 236 234 234 233 230 229 230 229 228 228 227 227 227 226
3 2 2 0 0 358 355 350 345 338 332 320 303 288 276 268 262 256 251 247 245 246 245 242 239 238 236 235 234 235 234 234 232 232 230 229 229 229 228 228 227 227 227
8 8 8 7 7 7 5 1 356 350 343 334 320 304 290 277 270 264 258 252 247 245 243 241 239 237 235 235 234 235 235 235 235 233 230 228 227 228 229 229 228 228 229
12 12 12 12 11 10 8 6 4 1 356 348 337 320 304 291 282 275 265 257 251 247 245 242 240 238 236 237 235 234 236 236 236 234 230 228 227 227 229 230 230 230 230
15 14 14 13 12 10 9 7 5 3 358 353 346 335 320 305 294 283 274 265 257 251 249 245 242 239 237 237 236 235 234 234 233 233 230 230 229 228 228 230 230 231 230
16 15 14 13 12 11 10 8 6 3 359 356 351 342 332 320 307 296 285 273 262 255 251 249 244 241 239 237 236 236 234 234 232 233 232 231 229 227 227 228 229 231 231
15 15 14 12 11 10 10 9 8 5 2 358 354 348 340 331 321 308 298 286 272 262 256 251 246 244 241 238 236 236 235 235 234 233 232 231 230 230 228 228 229 230 231
Height
5893 5891 5891 5890 5890 5890 5890 5890 5890 5890 5890 5890 5890 5890 5891 5891 5891 5891 5891 5891 5891 5891 5891 5891 5891 5891 5891 5891 5891 5891 5891 5891 5891 5890 5890 5890 5889 5889 5888 5887 5887 5886 5885
5891 5890 5889 5889 5888 5889 5889 5889 5888 5888 5888 5888 5888 5888 5889 5889 5889 5889 5890 5890 5890 5890 5890 5889 5889 5889 5889 5889 5889 5889 5889 5889 5889 5889 5889 5888 5888 5887 5887 5886 5886 5885 5885
5889 5888 5887 5887 5886 5887 5886 5886 5886 5886 5886 5886 5886 5886 5886 5887 5887 5887 5887 5887 5887 5887 5888 5887 5887 5887 5887 5887 5887 5887 5887 5887 5887 5887 5887 5887 5886 5886 5886 5886 5885 5885 5884
5887 5886 5885 5885 5884 5884 5884 5884 5883 5883 5883 5883 5883 5884 5884 5884 5884 5885 5885 5885 5885 5885 5885 5885 5885 5885 5885 5885 5885 5886 5886 5885 5885 5885 5885 5885 5885 5885 5885 5884 5884 5884 5884
5885 5884 5883 5882 5882 5881 5881 5880 5880 5880 5880 5880 5880 5880 5880 5881 5881 5882 5882 5882 5882 5882 5882 5883 5883 5883 5883 5883 5883 5884 5884 5884 5884 5883 5883 5883 5883 5883 5883 5883 5883 5883 5883
5882 5881 5880 5879 5879 5878 5877 5877 5876 5876 5875 5876 5876 5876 5877 5877 5877 5878 5878 5879 5879 5879 5880 5880 5880 5881 5881 5881 5881 5882 5882 5882 5882 5882 5882 5882 5882 5882 5882 5882 5882 5882 5882
5879 5878 5877 5876 5875 5874 5873 5872 5871 5871 5871 5871 5871 5871 5872 5872 5873 5874 5875 5875 5876 5876 5877 5877 5878 5878 5878 5879 5879 5880 5880 5880 5880 5880 5880 5880 5880 5880 5880 5881 5881 5881 5882
5875 5873 5872 5871 5870 5869 5868 5867 5867 5866 5866 5866 5866 5866 5867 5867 5868 5869 5870 5871 5872 5873 5873 5874 5875 5875 5876 5876 5877 5878 5878 5878 5878 5878 5878 5879 5879 5879 5879 5880 5880 5881 5881
5870 5868 5866 5865 5864 5863 5862 5862 5861 5860 5860 5860 5860 5861 5861 5862 5863 5864 5865 5867 5868 5869 5870 5870 5871 5872 5873 5874 5875 5875 5876 5876 5876 5876 5877 5877 5877 5878 5878 5878 5879 5880 5880
5864 5862 5860 5859 5858 5856 5856 5855 5854 5853 5853 5854 5854 5855 5855 5856 5857 5858 5860 5861 5863 5864 5865 5866 5867 5868 5870 5871 5872 5873 5874 5874 5874 5874 5875 5875 5876 5876 5877 5877 5878 5879 5880
5857 5855 5853 5852 5850 5849 5848 5847 5846 5846 5846 5846 5847 5848 5849 5850 5851 5852 5854 5855 5857 5858 5860 5861 5863 5864 5866 5867 5869 5870 5871 5872 5872 5873 5873 5873 5874 5874 5875 5876 5877 5878 5879
5851 5848 5846 5844 5842 5841 5840 5839 5838 5838 5838 5838 5839 5840 5841 5843 5844 5846 5847 5849 5851 5852 5854 5856 5857 5859 5861 5863 5865 5867 5868 5869 5870 5870 5871 5872 5872 5873 5874 5875 5876 5877 5878
5845 5842 5840 5837 5835 5833 5832 5830 5830 5830 5830 5830 5831 5832 5834 5835 5837 5839 5841 5842 5844 5846 5848 5850 5852 5854 5856 5859 5861 5863 5865 5866 5867 5868 5869 5869 5870 5871 5872 5873 5875 5876 5877
5840 5837 5834 5831 5829 5826 5825 5823 5822 5822 5822 5822 5823 5824 5826 5828 5830 5831 5833 5835 5837 5839 5841 5844 5846 5848 5851 5853 5856 5859 5861 5862 5864 5865 5866 5867 5868 5869 5870 5872 5873 5875 5876
5836 5833 5830 5826 5823 5821 5818 5816 5815 5814 5814 5814 5815 5816 5818 5820 5822 5824 5826 5828 5830 5832 5835 5838 5840 5842 5845 5848 5851 5854 5856 5858 5860 5861 5863 5864 5866 5867 5868 5870 5872 5873 5874
5832 5829 5825 5822 5819 5816 5813 5811 5809 5808 5807 5807 5808 5809 5810 5812 5814 5816 5819 5821 5823 5826 5828 5831 5834 5836 5839 5842 5845 5848 5851 5853 5855 5857 5859 5861 5863 5864 5866 5868 5869 5871 5873
5829 5825 5822 5818 5815 5811 5808 5805 5803 5802 5801 5801 5801 5802 5803 5805 5807 5809 5811 5814 5816 5818 5821 5824 5827 5830 5833 5836 5839 5842 5845 5848 5850 5853 5855 5857 5859 5861 5863 5865 5867 5868 5870
5827 5823 5819 5815 5811 5808 5804 5801 5799 5797 5795 5795 5795 5795 5796 5798 5800 5802 5804 5806 5809 5811 5814 5817 5820 5823 5826 5829 5833 5836 5839 5842 5845 5848 5850 5853 5855 5858 5860 5862 5864 5866 5868
5825 5821 5817 5813 5809 5805 5801 5798 5795 5793 5791 5791 5790 5790 5791 5792 5793 5795 5797 5800 5802 5804 5807 5810 5812 5816 5819 5823 5826 5829 5832 5836 5839 5842 5845 5848 5851 5853 5856 5858 5861 5863 5865
5824 5820 5815 5811 5807 5802 5798 5795 5792 5790 5789 5787 5787 5786 5786 5787 5788 5789 5791 5793 5795 5797 5800 5803 5806 5809 5812 5815 5819 5822 5825 5829 5833 5836 5839 5842 5845 5848 5851 5854 5857 5859 5861
5823 5819 5814 5810 5805 5801 5797 5793 5791 5788 5786 5785 5784 5783 5783 5783 5783 5784 5785 5786 5788 5790 5793 5795 5799 5802 5805 5808 5812 5815 5819 5822 5826 5829 5833 5837 5840 5843 5846 5849 5852 5855 5857
5823 5819 5814 5810 5805 5801 5797 5793 5790 5787 5785 5783 5781 5780 5779 5779 5778 5779 5779 5780 5781 5783 5786 5788 5791 5794 5798 5801 5805 5808 5812 5816 5819 5823 5826 5830 5834 5837 5840 5844 5847 5850 5853
5823 5819 5815 5810 5806 5801 5797 5793 5789 5786 5783 5781 5779 5777 5776 5775 5774 5774 5774 5775 5775 5777 5779 5781 5784 5787 5790 5794 5797 5801 5805 5808 5812 5816 5819 5823 5827 5830 5834 5837 5841 5844 5847
5824 5820 5815 5811 5806 5802 5797 5793 5789 5786 5783 5780 5777 5775 5773 5771 5770 5769 5769 5769 5770 5771 5772 5774 5777 5780 5783 5786 5790 5793 5797 5801 5805 5809 5812 5816 5819 5823 5827 5831 5834 5838 5841
5825 5820 5816 5811 5807 5802 5798 5793 5789 5786 5782 5779 5775 5773 5770 5768 5766 5765 5765 5764 5764 5765 5766 5768 5770 5773 5776 5778 5782 5785 5789 5793 5797 5801 5805 5808 5812 5816 5820 5823 5827 5831 5835
5826 5821 5817 5812 5808 5803 5798 5794 5790 5786 5782 5778 5774 5771 5768 5765 5763 5762 5760 5760 5760 5760 5761 5762 5764 5766 5768 5771 5774 5778 5781 5785 5789 5793 5797 5800 5804 5808 5812 5816 5820 5824 5828